SCP
0 0 0 0 0 0 0 0 0 0 0 0 0 0 0 0 0 0 0 0 0 0 0 0 0 0 0 0 0 0 0 0 1 0 0 0 0 0 0 0 1 1 0 0 0 0 0 0 0
0 0 0 0 0 0 0 0 0 0 0 0 0 0 0 0 0 0 0 0 0 -0 -0 0 0 0 0 0 0 0 0 0 0 1 0 0 0 0 0 0 1 1 1 0 0 0 0 0 0
0 0 0 0 0 0 0 0 0 0 0 0 0 0 0 0 0 0 0 0 0 0 0 0 0 0 0 0 0 0 0 0 0 0 1 0 0 0 0 0 1 1 1 0 0 0 0 0 0
0 0 0 0 0 0 0 0 0 0 0 0 0 0 0 0 0 0 0 0 0 0 0 0 0 0 0 0 0 0 0 0 0 0 0 0 0 0 1 0 1 1 0 0 0 0 1 0 0
0 0 0 0 0 0 0 0 0 0 0 0 0 0 0 0 0 0 0 0 0 0 0 0 0 0 0 0 0 0 0 0 0 0 0 0 0 1 0 1 0 1 0 0 1 0 0 0 0
0 0 0 0 0 0 0 0 0 0 0 0 0 0 0 0 0 0 0 0 0 0 0 -0 0 0 0 0 0 0 0 0 0 0 0 0 0 0 0 0 1 0 0 0 0 0 1 0 0
0 0 0 0 0 0 0 0 0 0 0 0 0 0 0 0 0 0 0 0 0 0 0 0 -0 -0 0 0 0 0 0 0 0 0 0 0 0 0 0 0 0 1 0 1 1 0 0 0 0
0 0 0 0 0 0 0 0 0 0 0 0 0 0 0 0 0 0 0 0 0 0 0 -0 0 0 0 0 0 0 0 0 0 0 0 0 0 0 0 0 0 0 1 0 0 0 0 0 0
0 0 0 0 0 0 0 0 0 0 0 0 0 0 0 0 0 0 0 0 0 0 0 0 0 0 0 0 0 0 0 0 0 0 0 0 0 0 0 0 0 0 0 0 0 0 0 0 0
0 0 0 0 0 0 0 0 0 0 0 0 0 0 0 0 0 0 0 0 0 0 0 0 0 0 0 0 0 0 0 0 0 0 0 0 0 0 0 0 0 0 0 0 0 0 1 0 0
0 0 0 0 0 0 0 0 0 0 0 0 0 0 0 0 0 0 0 0 0 0 0 0 0 0 0 0 0 0 0 0 0 0 0 0 0 0 0 0 0 0 0 0 0 0 0 0 0
0 0 0 0 0 0 0 0 0 0 0 0 0 0 0 0 0 0 0 0 0 0 0 0 0 0 0 -0 0 0 0 0 0 0 0 0 0 0 0 0 0 0 0 0 0 0 0 0 0
0 0 0 0 0 0 0 0 0 0 0 0 0 0 0 0 0 0 0 0 0 0 0 0 0 0 0 0 0 0 0 0 0 0 0 0 0 0 0 0 0 0 0 0 0 1 1 1 0
0 0 0 0 0 0 0 0 0 0 0 0 0 0 0 0 0 0 0 0 0 0 0 0 0 0 0 0 0 0 0 0 0 0 0 0 0 0 0 0 0 0 0 0 0 1 1 1 0
0 0 0 0 0 0 0 0 0 0 0 0 0 0 0 0 0 0 0 0 0 0 0 0 0 0 0 0 0 0 0 0 0 0 0 0 0 0 0 0 0 0 0 0 0 1 0 0 0
0 0 0 0 0 0 0 0 0 0 0 0 0 0 0 0 0 0 0 0 0 0 0 0 0 0 0 0 0 0 0 0 0 0 0 0 0 0 0 0 0 0 0 0 0 0 0 0 0
0 0 0 0 0 0 0 0 0 0 0 0 0 0 0 0 0 0 0 0 0 0 0 0 0 0 0 0 0 0 0 0 0 0 0 0 0 0 0 0 0 0 0 0 0 0 0 0 0
0 0 0 0 0 0 0 0 0 0 0 0 0 0 0 0 0 0 0 0 0 0 0 0 0 0 0 0 0 0 0 0 0 0 0 0 0 0 0 0 0 0 0 0 0 0 0 0 0
0 0 0 0 0 0 0 0 0 0 0 0 0 0 0 0 0 0 0 0 0 0 0 0 0 0 0 0 0 0 0 0 0 0 0 0 0 0 0 0 0 0 0 0 0 0 0 0 0
0 0 0 0 0 0 0 0 0 0 0 0 0 0 0 0 0 0 0 0 0 0 0 0 0 0 0 0 0 0 0 0 0 0 0 0 0 0 0 0 0 0 0 0 0 0 0 0 0
0 0 0 0 0 0 0 0 0 0 0 0 0 0 0 0 0 0 0 0 0 0 0 0 0 0 0 0 0 0 0 0 0 0 0 0 0 0 0 0 0 0 0 0 0 0 0 0 0
0 0 0 0 0 0 0 0 0 0 0 0 0 0 0 0 0 0 0 0 0 0 0 0 0 0 0 0 0 0 0 0 0 0 0 0 0 0 0 0 0 0 0 0 0 0 0 0 0
0 0 0 0 0 0 0 0 0 0 0 0 0 0 0 0 0 0 0 0 0 0 0 0 0 0 0 0 0 0 0 0 0 0 0 0 0 0 0 0 0 0 0 0 0 0 0 0 0
0 0 0 0 0 0 0 0 0 0 0 0 0 0 0 0 0 0 0 0 0 0 0 0 0 0 0 0 0 0 0 0 0 0 0 0 0 0 0 0 0 0 0 -0 0 0 0 0 0
0 0 0 0 0 0 0 0 0 0 0 0 0 0 0 0 0 0 0 0 0 0 0 0 0 0 0 0 0 0 0 0 0 0 0 -0 0 0 0 0 0 0 0 0 0 0 0 0 0
0 0 0 0 0 0 0 0 0 0 0 0 0 0 0 0 0 0 0 0 0 0 0 0 0 0 0 0 0 0 0 0 0 0 0 0 -0 -0 0 0 0 0 0 0 0 -0 0 0 0
0 0 0 0 0 0 0 0 0 0 0 0 0 0 0 0 0 0 0 0 0 0 0 0 0 0 0 0 0 0 0 0 0 0 0 0 0 -0 0 0 0 0 0 0 0 0 0 -0 0
0 0 0 0 0 0 0 0 0 0 0 0 0 0 0 0 0 0 0 0 0 0 0 0 0 0 0 -0 -0 0 0 0 0 0 0 0 0 0 0 0 0 0 0 0 0 0 0 0 0
0 0 0 0 0 0 0 0 0 0 0 0 0 0 0 0 0 0 0 0 0 0 0 0 0 0 0 -0 -0 -0 0 0 0 0 0 0 0 0 0 0 0 0 0 0 0 0 0 0 0
0 0 0 0 0 0 0 0 0 0 0 0 0 0 0 0 0 0 0 0 0 0 0 0 0 0 0 -0 -0 -0 -0 0 0 0 0 0 0 0 0 0 0 0 0 0 0 0 0 0 0
Wind_Speed_500mb
8 19 21 10 7 9 6 8 8 4 4 4 9 16 17 12 4 4 22 11 12 17 19 18 21 20 12 8 12 11 10 11 11 14 16 16 16 20 28 35 42 44 40 39 41 41 38 38 37
11 21 12 6 8 5 8 4 5 3 8 11 14 13 11 6 11 15 9 7 14 19 24 24 23 23 20 15 12 14 16 15 16 16 19 21 21 22 28 34 38 43 46 43 44 43 40 38 36
16 16 6 8 7 9 9 7 10 7 7 5 7 15 8 11 12 15 9 2 12 21 28 30 30 26 24 21 17 14 22 19 21 22 22 25 25 24 28 34 36 39 43 45 47 46 43 40 38
11 7 7 7 10 9 11 10 8 7 8 6 12 11 10 9 12 14 9 12 18 21 29 33 34 34 31 27 23 21 17 25 23 25 27 28 31 29 33 37 40 42 44 45 48 48 46 40 38
9 6 6 1 8 3 4 9 6 6 8 7 5 12 16 13 12 11 13 16 18 24 33 38 40 38 35 31 30 26 23 23 29 28 33 35 36 38 38 39 43 47 46 48 50 49 46 40 38
6 5 6 6 8 7 2 2 7 4 6 6 3 16 12 15 18 16 9 17 24 29 37 44 43 41 37 35 34 33 31 28 27 30 30 37 39 43 45 46 47 50 55 53 50 49 50 46 42
10 7 8 7 7 8 9 6 7 9 5 5 9 9 10 20 14 11 14 22 29 35 42 49 52 58 59 53 46 40 37 35 32 32 33 34 44 46 50 53 52 54 57 61 60 56 54 50 46
4 7 4 8 8 8 8 5 9 6 6 8 6 10 9 27 21 22 29 33 37 40 46 51 49 47 49 50 47 44 42 40 37 37 33 36 43 45 51 59 61 59 59 61 63 58 55 52 47
4 7 5 6 9 4 3 3 4 2 8 13 10 14 15 22 24 30 34 37 41 44 48 49 48 43 40 41 46 47 44 43 41 39 38 37 36 40 49 56 62 66 63 63 65 63 58 55 51
7 7 13 2 1 6 3 3 4 5 11 14 12 12 20 26 29 34 39 45 49 50 47 43 44 45 44 43 40 42 49 47 47 45 42 40 39 41 42 55 61 65 68 68 70 70 65 62 61
7 9 6 5 7 4 4 6 8 7 11 29 27 29 25 23 26 33 36 39 42 41 38 41 45 48 51 50 49 45 43 48 50 48 47 44 42 42 46 43 57 66 65 69 74 74 71 73 76
5 10 11 9 11 6 6 4 9 27 19 21 29 27 28 25 28 33 37 41 41 42 42 40 44 52 56 55 51 49 49 46 48 52 50 48 47 44 42 48 46 64 68 71 74 79 77 77 87
6 5 8 9 11 14 12 19 17 31 34 33 26 31 29 28 30 33 36 39 44 45 45 47 49 56 61 61 56 53 49 49 49 50 52 51 51 49 43 43 45 42 64 73 74 75 77 77 78
3 11 24 22 20 14 7 5 8 12 12 25 34 34 30 29 30 35 41 44 47 46 47 47 55 62 63 64 59 56 54 51 50 51 51 55 54 53 48 44 39 46 39 67 72 77 80 79 75
5 11 13 14 14 6 4 15 20 40 25 24 32 35 37 36 38 44 49 52 49 49 53 59 61 59 57 60 61 58 55 54 55 51 54 55 58 55 55 46 39 38 38 67 77 75 80 82 79
4 2 7 1 13 4 9 17 10 17 31 46 44 42 40 38 41 43 42 43 44 47 54 57 56 55 55 55 56 59 58 54 57 53 53 58 59 57 59 57 42 30 39 46 60 90 78 89 76
3 7 8 11 16 6 10 16 10 22 34 43 45 46 43 35 39 37 36 39 45 50 54 55 54 53 52 53 55 53 56 57 57 55 52 56 59 60 60 62 53 36 47 39 46 41 36 93 87
8 8 9 11 4 8 14 35 31 41 46 55 55 50 47 42 38 30 28 35 43 49 53 53 53 50 46 49 52 51 52 54 58 54 52 52 57 60 59 62 57 38 45 39 49 57 51 26 45
4 6 11 6 3 5 17 25 41 35 45 38 53 52 54 42 32 26 32 38 44 50 55 57 53 46 42 43 46 48 50 49 54 54 47 50 53 59 60 62 58 42 39 40 43 47 47 58 53
6 6 12 11 4 6 13 35 41 8 11 29 43 40 39 30 24 31 35 43 49 55 57 56 50 45 40 41 42 43 48 50 51 47 39 40 50 58 59 59 60 58 44 35 43 56 71 63 61
7 9 6 7 14 5 16 15 10 8 5 4 2 23 24 28 34 37 41 47 51 54 55 48 45 41 41 40 43 45 46 46 49 36 29 30 36 52 53 57 60 57 56 43 42 50 73 70 87
5 4 3 3 9 6 8 11 13 8 13 7 14 21 25 23 26 36 46 49 49 48 47 46 41 39 38 38 40 42 44 44 41 39 29 33 31 43 55 55 59 58 59 58 47 45 40 43 72
7 2 2 6 6 8 3 5 15 6 14 14 16 25 22 18 30 43 44 39 39 44 45 44 43 39 36 36 37 42 44 41 42 36 32 33 29 38 57 56 57 48 70 58 56 46 47 46 38
7 7 7 5 6 5 7 6 14 8 11 1 4 20 17 26 36 33 30 35 42 39 40 40 38 34 34 35 36 38 42 41 40 34 34 35 33 25 50 53 51 53 52 65 69 56 49 49 50
8 8 6 10 7 10 4 2 22 13 11 11 14 19 18 29 34 28 32 36 37 39 39 36 34 34 32 34 33 33 36 37 37 33 38 39 38 27 42 47 46 44 48 61 58 60 53 47 54
6 10 9 10 5 10 5 12 12 10 6 10 12 15 22 30 27 28 31 33 37 38 36 33 33 33 33 32 31 29 31 31 32 35 36 30 37 39 27 33 42 45 45 48 53 57 80 61 54
5 3 5 12 2 4 6 14 17 4 10 11 17 21 28 30 26 29 29 33 36 33 31 32 32 31 30 29 27 24 23 23 26 30 29 26 39 51 39 34 33 31 40 41 48 51 60 56 55
2 6 4 6 2 9 10 11 11 9 9 10 13 23 29 25 24 26 29 34 30 30 30 29 29 30 29 25 23 19 16 15 18 21 24 21 24 29 32 32 28 29 29 33 37 40 39 45 56
2 2 5 6 7 8 7 13 14 12 11 12 16 24 25 22 22 25 28 26 27 26 26 27 26 24 21 20 18 12 8 8 12 17 15 17 18 15 15 23 21 27 27 30 26 27 32 38 41
2 11 8 8 10 2 5 16 6 9 11 16 30 26 18 16 24 24 23 22 21 21 22 23 22 20 18 17 12 8 4 5 7 8 12 16 18 16 18 20 21 22 28 24 24 26 33 35 35
Wind_Direction_500mb
143 152 150 142 69 67 252 246 321 102 76 94 87 91 113 63 45 181 109 62 11 309 326 348 1 2 349 346 294 303 288 231 227 241 253 249 239 216 211 207 207 212 209 214 207 203 201 195 192
151 159 160 124 103 116 259 278 135 227 146 112 95 90 68 82 94 139 199 21 351 324 328 341 347 347 345 326 324 283 298 272 244 234 241 240 240 228 210 214 209 211 211 208 203 203 198 194 196
157 161 143 116 126 187 197 195 175 148 94 103 88 72 97 114 117 134 123 170 283 298 316 325 326 334 329 328 311 291 278 283 259 253 236 234 234 231 221 217 211 206 208 207 206 204 200 198 202
157 134 77 107 212 242 199 177 166 122 69 55 114 68 97 120 164 165 189 235 263 287 302 311 314 317 318 318 314 295 267 272 274 258 251 237 231 231 225 221 218 211 210 208 206 204 200 202 207
134 105 73 119 248 195 65 147 198 121 120 153 120 162 142 159 168 197 232 269 291 304 306 309 313 312 309 305 303 301 286 274 266 266 261 247 231 226 223 224 223 219 216 212 211 209 210 210 213
106 100 83 211 241 124 67 162 152 122 150 153 152 135 155 176 200 223 261 293 304 308 308 309 310 311 310 306 297 294 294 282 274 267 263 258 253 231 225 223 225 224 222 220 218 217 219 223 220
115 92 202 211 225 176 187 146 162 169 144 225 146 122 186 196 213 229 266 286 295 301 302 303 303 301 299 296 293 287 285 285 281 272 259 259 253 246 231 228 225 226 226 225 226 227 228 222 224
109 94 225 240 206 214 169 157 162 174 220 160 197 193 220 214 232 254 270 280 287 291 296 303 303 295 292 291 287 282 278 278 279 278 273 253 253 255 242 231 229 228 226 227 229 232 228 227 227
137 63 247 247 168 166 136 126 191 244 190 205 220 236 222 211 240 261 273 280 288 295 300 302 302 304 301 293 287 283 275 272 272 272 271 270 253 249 247 242 232 233 231 227 227 228 224 229 230
113 137 220 163 128 147 142 176 236 246 203 220 203 194 206 226 248 266 275 283 289 296 299 301 305 309 309 305 298 288 283 274 268 269 271 265 262 251 246 249 238 234 230 234 228 227 224 220 225
167 206 207 192 170 171 207 249 224 223 249 231 234 228 225 243 265 282 292 297 302 302 302 306 309 311 310 305 302 296 287 280 271 265 266 268 262 258 251 244 245 238 236 233 234 231 227 222 220
237 247 249 182 183 186 212 223 260 229 242 255 261 255 242 256 274 283 289 296 299 304 310 310 311 312 310 310 305 297 289 281 276 266 260 264 262 258 251 248 244 247 239 236 235 234 232 229 225
209 284 278 242 263 258 245 229 233 253 255 265 252 258 249 255 269 282 292 298 304 303 305 308 309 310 308 304 305 300 290 282 274 270 259 259 259 260 255 250 243 246 248 243 237 237 234 235 232
261 279 276 278 274 239 223 278 189 260 227 229 240 247 251 261 272 280 288 296 303 306 308 304 305 306 304 301 300 297 293 285 277 267 262 252 256 253 254 248 250 247 249 247 240 236 232 231 229
303 317 316 237 214 209 101 294 229 254 244 211 219 241 250 259 267 275 282 291 302 308 310 310 309 305 300 296 295 295 291 286 280 272 263 253 250 250 247 247 246 253 256 247 241 232 230 225 225
322 81 336 15 143 199 132 264 281 234 216 234 236 242 245 248 256 262 267 279 289 295 301 307 308 305 301 295 292 293 292 285 278 276 263 256 249 244 246 244 242 251 260 239 243 226 224 213 210
351 245 216 303 190 142 192 267 255 226 223 232 230 237 242 231 238 248 262 277 290 301 309 313 311 308 303 297 292 289 286 286 282 273 263 254 250 244 240 241 240 239 248 246 222 193 183 204 194
196 234 249 239 222 211 253 261 273 269 238 234 237 244 239 230 229 244 265 282 291 300 312 314 312 308 302 296 294 292 284 281 281 272 261 257 251 245 237 237 236 237 242 251 233 223 221 185 179
143 228 243 248 344 273 249 274 277 279 256 245 243 247 242 227 226 251 273 286 296 306 311 311 309 305 302 297 295 291 289 283 279 270 258 257 252 245 238 230 229 230 229 234 211 189 188 179 206
184 256 263 282 11 345 302 292 286 281 248 253 246 241 215 204 233 259 277 291 298 305 310 308 306 303 301 297 293 292 290 283 283 268 264 262 257 243 238 229 229 234 223 226 227 207 203 195 198
208 208 240 238 331 263 311 294 330 261 252 288 260 207 194 218 246 268 284 294 300 304 305 304 306 305 303 300 298 290 287 282 279 265 258 243 270 244 240 230 228 230 220 225 226 226 207 192 196
281 90 79 17 46 268 43 282 293 274 277 221 204 189 206 234 269 290 296 292 297 302 304 305 304 299 297 297 296 292 290 287 274 256 247 238 264 241 235 230 229 225 217 217 230 218 226 200 207
209 94 193 135 102 42 4 61 270 358 283 255 224 204 212 256 292 294 288 293 300 302 304 305 303 297 291 294 295 291 284 281 277 266 257 252 252 229 228 227 230 226 226 225 227 223 214 225 222
116 77 54 58 89 12 234 135 277 204 212 152 118 182 229 289 299 294 286 294 300 301 302 305 303 298 294 294 294 287 281 276 273 267 257 272 250 237 218 219 230 225 217 227 239 230 226 220 224
78 69 323 349 7 228 245 354 250 264 224 200 191 219 281 300 304 293 297 302 303 309 311 310 306 304 302 298 294 287 278 272 271 260 254 263 268 260 207 224 235 229 223 222 234 227 229 227 233
174 155 161 226 244 273 347 237 253 222 261 223 250 285 299 304 294 301 307 307 314 316 314 313 312 312 310 303 296 288 276 269 263 255 253 262 267 277 223 230 242 231 230 228 225 232 227 238 235
173 198 149 100 70 27 233 283 289 233 290 286 279 286 299 308 304 311 310 314 316 315 319 321 318 316 316 309 300 290 278 268 258 252 249 250 253 254 259 245 235 229 223 223 224 220 219 229 233
124 152 68 13 16 292 287 285 243 303 282 309 295 291 306 305 307 306 310 316 318 320 324 323 320 322 321 318 306 299 288 265 247 235 240 249 254 245 243 238 235 230 222 220 217 218 216 225 229
85 255 59 114 126 180 298 269 219 218 217 247 278 307 307 305 301 308 317 320 318 328 329 332 327 327 328 328 317 306 290 251 231 213 223 244 243 235 222 238 222 213 224 213 211 216 217 217 224
228 196 148 122 255 196 147 273 201 216 232 254 290 307 308 302 301 314 324 325 334 336 343 344 345 344 344 343 336 324 284 217 207 205 216 224 223 236 248 235 229 202 202 204 201 207 212 209 208
Wind_Speed_850mb
8 19 21 10 7 9 6 8 8 4 4 4 9 16 17 12 4 4 22 11 12 17 19 18 21 20 12 8 12 11 10 11 11 14 16 16 16 20 28 35 42 44 40 39 41 41 38 38 37
11 21 12 6 8 5 8 4 5 3 8 11 14 13 11 6 11 15 9 7 14 19 24 24 23 23 20 15 12 14 16 15 16 16 19 21 21 22 28 34 38 43 46 43 44 43 40 38 36
16 16 6 8 7 9 9 7 10 7 7 5 7 15 8 11 12 15 9 2 12 21 28 30 30 26 24 21 17 14 22 19 21 22 22 25 25 24 28 34 36 39 43 45 47 46 43 40 38
11 7 7 7 10 9 11 10 8 7 8 6 12 11 10 9 12 14 9 12 18 21 29 33 34 34 31 27 23 21 17 25 23 25 27 28 31 29 33 37 40 42 44 45 48 48 46 40 38
9 6 6 1 8 3 4 9 6 6 8 7 5 12 16 13 12 11 13 16 18 24 33 38 40 38 35 31 30 26 23 23 29 28 33 35 36 38 38 39 43 47 46 48 50 49 46 40 38
6 5 6 6 8 7 2 2 7 4 6 6 3 16 12 15 18 16 9 17 24 29 37 44 43 41 37 35 34 33 31 28 27 30 30 37 39 43 45 46 47 50 55 53 50 49 50 46 42
10 7 8 7 7 8 9 6 7 9 5 5 9 9 10 20 14 11 14 22 29 35 42 49 52 58 59 53 46 40 37 35 32 32 33 34 44 46 50 53 52 54 57 61 60 56 54 50 46
4 7 4 8 8 8 8 5 9 6 6 8 6 10 9 27 21 22 29 33 37 40 46 51 49 47 49 50 47 44 42 40 37 37 33 36 43 45 51 59 61 59 59 61 63 58 55 52 47
4 7 5 6 9 4 3 3 4 2 8 13 10 14 15 22 24 30 34 37 41 44 48 49 48 43 40 41 46 47 44 43 41 39 38 37 36 40 49 56 62 66 63 63 65 63 58 55 51
7 7 13 2 1 6 3 3 4 5 11 14 12 12 20 26 29 34 39 45 49 50 47 43 44 45 44 43 40 42 49 47 47 45 42 40 39 41 42 55 61 65 68 68 70 70 65 62 61
7 9 6 5 7 4 4 6 8 7 11 29 27 29 25 23 26 33 36 39 42 41 38 41 45 48 51 50 49 45 43 48 50 48 47 44 42 42 46 43 57 66 65 69 74 74 71 73 76
5 10 11 9 11 6 6 4 9 27 19 21 29 27 28 25 28 33 37 41 41 42 42 40 44 52 56 55 51 49 49 46 48 52 50 48 47 44 42 48 46 64 68 71 74 79 77 77 87
6 5 8 9 11 14 12 19 17 31 34 33 26 31 29 28 30 33 36 39 44 45 45 47 49 56 61 61 56 53 49 49 49 50 52 51 51 49 43 43 45 42 64 73 74 75 77 77 78
3 11 24 22 20 14 7 5 8 12 12 25 34 34 30 29 30 35 41 44 47 46 47 47 55 62 63 64 59 56 54 51 50 51 51 55 54 53 48 44 39 46 39 67 72 77 80 79 75
5 11 13 14 14 6 4 15 20 40 25 24 32 35 37 36 38 44 49 52 49 49 53 59 61 59 57 60 61 58 55 54 55 51 54 55 58 55 55 46 39 38 38 67 77 75 80 82 79
4 2 7 1 13 4 9 17 10 17 31 46 44 42 40 38 41 43 42 43 44 47 54 57 56 55 55 55 56 59 58 54 57 53 53 58 59 57 59 57 42 30 39 46 60 90 78 89 76
3 7 8 11 16 6 10 16 10 22 34 43 45 46 43 35 39 37 36 39 45 50 54 55 54 53 52 53 55 53 56 57 57 55 52 56 59 60 60 62 53 36 47 39 46 41 36 93 87
8 8 9 11 4 8 14 35 31 41 46 55 55 50 47 42 38 30 28 35 43 49 53 53 53 50 46 49 52 51 52 54 58 54 52 52 57 60 59 62 57 38 45 39 49 57 51 26 45
4 6 11 6 3 5 17 25 41 35 45 38 53 52 54 42 32 26 32 38 44 50 55 57 53 46 42 43 46 48 50 49 54 54 47 50 53 59 60 62 58 42 39 40 43 47 47 58 53
6 6 12 11 4 6 13 35 41 8 11 29 43 40 39 30 24 31 35 43 49 55 57 56 50 45 40 41 42 43 48 50 51 47 39 40 50 58 59 59 60 58 44 35 43 56 71 63 61
7 9 6 7 14 5 16 15 10 8 5 4 2 23 24 28 34 37 41 47 51 54 55 48 45 41 41 40 43 45 46 46 49 36 29 30 36 52 53 57 60 57 56 43 42 50 73 70 87
5 4 3 3 9 6 8 11 13 8 13 7 14 21 25 23 26 36 46 49 49 48 47 46 41 39 38 38 40 42 44 44 41 39 29 33 31 43 55 55 59 58 59 58 47 45 40 43 72
7 2 2 6 6 8 3 5 15 6 14 14 16 25 22 18 30 43 44 39 39 44 45 44 43 39 36 36 37 42 44 41 42 36 32 33 29 38 57 56 57 48 70 58 56 46 47 46 38
7 7 7 5 6 5 7 6 14 8 11 1 4 20 17 26 36 33 30 35 42 39 40 40 38 34 34 35 36 38 42 41 40 34 34 35 33 25 50 53 51 53 52 65 69 56 49 49 50
8 8 6 10 7 10 4 2 22 13 11 11 14 19 18 29 34 28 32 36 37 39 39 36 34 34 32 34 33 33 36 37 37 33 38 39 38 27 42 47 46 44 48 61 58 60 53 47 54
6 10 9 10 5 10 5 12 12 10 6 10 12 15 22 30 27 28 31 33 37 38 36 33 33 33 33 32 31 29 31 31 32 35 36 30 37 39 27 33 42 45 45 48 53 57 80 61 54
5 3 5 12 2 4 6 14 17 4 10 11 17 21 28 30 26 29 29 33 36 33 31 32 32 31 30 29 27 24 23 23 26 30 29 26 39 51 39 34 33 31 40 41 48 51 60 56 55
2 6 4 6 2 9 10 11 11 9 9 10 13 23 29 25 24 26 29 34 30 30 30 29 29 30 29 25 23 19 16 15 18 21 24 21 24 29 32 32 28 29 29 33 37 40 39 45 56
2 2 5 6 7 8 7 13 14 12 11 12 16 24 25 22 22 25 28 26 27 26 26 27 26 24 21 20 18 12 8 8 12 17 15 17 18 15 15 23 21 27 27 30 26 27 32 38 41
2 11 8 8 10 2 5 16 6 9 11 16 30 26 18 16 24 24 23 22 21 21 22 23 22 20 18 17 12 8 4 5 7 8 12 16 18 16 18 20 21 22 28 24 24 26 33 35 35
Wind_Direction_850mb
143 152 150 142 69 67 252 246 321 102 76 94 87 91 113 63 45 181 109 62 11 309 326 348 1 2 349 346 294 303 288 231 227 241 253 249 239 216 211 207 207 212 209 214 207 203 201 195 192
151 159 160 124 103 116 259 278 135 227 146 112 95 90 68 82 94 139 199 21 351 324 328 341 347 347 345 326 324 283 298 272 244 234 241 240 240 228 210 214 209 211 211 208 203 203 198 194 196
157 161 143 116 126 187 197 195 175 148 94 103 88 72 97 114 117 134 123 170 283 298 316 325 326 334 329 328 311 291 278 283 259 253 236 234 234 231 221 217 211 206 208 207 206 204 200 198 202
157 134 77 107 212 242 199 177 166 122 69 55 114 68 97 120 164 165 189 235 263 287 302 311 314 317 318 318 314 295 267 272 274 258 251 237 231 231 225 221 218 211 210 208 206 204 200 202 207
134 105 73 119 248 195 65 147 198 121 120 153 120 162 142 159 168 197 232 269 291 304 306 309 313 312 309 305 303 301 286 274 266 266 261 247 231 226 223 224 223 219 216 212 211 209 210 210 213
106 100 83 211 241 124 67 162 152 122 150 153 152 135 155 176 200 223 261 293 304 308 308 309 310 311 310 306 297 294 294 282 274 267 263 258 253 231 225 223 225 224 222 220 218 217 219 223 220
115 92 202 211 225 176 187 146 162 169 144 225 146 122 186 196 213 229 266 286 295 301 302 303 303 301 299 296 293 287 285 285 281 272 259 259 253 246 231 228 225 226 226 225 226 227 228 222 224
109 94 225 240 206 214 169 157 162 174 220 160 197 193 220 214 232 254 270 280 287 291 296 303 303 295 292 291 287 282 278 278 279 278 273 253 253 255 242 231 229 228 226 227 229 232 228 227 227
137 63 247 247 168 166 136 126 191 244 190 205 220 236 222 211 240 261 273 280 288 295 300 302 302 304 301 293 287 283 275 272 272 272 271 270 253 249 247 242 232 233 231 227 227 228 224 229 230
113 137 220 163 128 147 142 176 236 246 203 220 203 194 206 226 248 266 275 283 289 296 299 301 305 309 309 305 298 288 283 274 268 269 271 265 262 251 246 249 238 234 230 234 228 227 224 220 225
167 206 207 192 170 171 207 249 224 223 249 231 234 228 225 243 265 282 292 297 302 302 302 306 309 311 310 305 302 296 287 280 271 265 266 268 262 258 251 244 245 238 236 233 234 231 227 222 220
237 247 249 182 183 186 212 223 260 229 242 255 261 255 242 256 274 283 289 296 299 304 310 310 311 312 310 310 305 297 289 281 276 266 260 264 262 258 251 248 244 247 239 236 235 234 232 229 225
209 284 278 242 263 258 245 229 233 253 255 265 252 258 249 255 269 282 292 298 304 303 305 308 309 310 308 304 305 300 290 282 274 270 259 259 259 260 255 250 243 246 248 243 237 237 234 235 232
261 279 276 278 274 239 223 278 189 260 227 229 240 247 251 261 272 280 288 296 303 306 308 304 305 306 304 301 300 297 293 285 277 267 262 252 256 253 254 248 250 247 249 247 240 236 232 231 229
303 317 316 237 214 209 101 294 229 254 244 211 219 241 250 259 267 275 282 291 302 308 310 310 309 305 300 296 295 295 291 286 280 272 263 253 250 250 247 247 246 253 256 247 241 232 230 225 225
322 81 336 15 143 199 132 264 281 234 216 234 236 242 245 248 256 262 267 279 289 295 301 307 308 305 301 295 292 293 292 285 278 276 263 256 249 244 246 244 242 251 260 239 243 226 224 213 210
351 245 216 303 190 142 192 267 255 226 223 232 230 237 242 231 238 248 262 277 290 301 309 313 311 308 303 297 292 289 286 286 282 273 263 254 250 244 240 241 240 239 248 246 222 193 183 204 194
196 234 249 239 222 211 253 261 273 269 238 234 237 244 239 230 229 244 265 282 291 300 312 314 312 308 302 296 294 292 284 281 281 272 261 257 251 245 237 237 236 237 242 251 233 223 221 185 179
143 228 243 248 344 273 249 274 277 279 256 245 243 247 242 227 226 251 273 286 296 306 311 311 309 305 302 297 295 291 289 283 279 270 258 257 252 245 238 230 229 230 229 234 211 189 188 179 206
184 256 263 282 11 345 302 292 286 281 248 253 246 241 215 204 233 259 277 291 298 305 310 308 306 303 301 297 293 292 290 283 283 268 264 262 257 243 238 229 229 234 223 226 227 207 203 195 198
208 208 240 238 331 263 311 294 330 261 252 288 260 207 194 218 246 268 284 294 300 304 305 304 306 305 303 300 298 290 287 282 279 265 258 243 270 244 240 230 228 230 220 225 226 226 207 192 196
281 90 79 17 46 268 43 282 293 274 277 221 204 189 206 234 269 290 296 292 297 302 304 305 304 299 297 297 296 292 290 287 274 256 247 238 264 241 235 230 229 225 217 217 230 218 226 200 207
209 94 193 135 102 42 4 61 270 358 283 255 224 204 212 256 292 294 288 293 300 302 304 305 303 297 291 294 295 291 284 281 277 266 257 252 252 229 228 227 230 226 226 225 227 223 214 225 222
116 77 54 58 89 12 234 135 277 204 212 152 118 182 229 289 299 294 286 294 300 301 302 305 303 298 294 294 294 287 281 276 273 267 257 272 250 237 218 219 230 225 217 227 239 230 226 220 224
78 69 323 349 7 228 245 354 250 264 224 200 191 219 281 300 304 293 297 302 303 309 311 310 306 304 302 298 294 287 278 272 271 260 254 263 268 260 207 224 235 229 223 222 234 227 229 227 233
174 155 161 226 244 273 347 237 253 222 261 223 250 285 299 304 294 301 307 307 314 316 314 313 312 312 310 303 296 288 276 269 263 255 253 262 267 277 223 230 242 231 230 228 225 232 227 238 235
173 198 149 100 70 27 233 283 289 233 290 286 279 286 299 308 304 311 310 314 316 315 319 321 318 316 316 309 300 290 278 268 258 252 249 250 253 254 259 245 235 229 223 223 224 220 219 229 233
124 152 68 13 16 292 287 285 243 303 282 309 295 291 306 305 307 306 310 316 318 320 324 323 320 322 321 318 306 299 288 265 247 235 240 249 254 245 243 238 235 230 222 220 217 218 216 225 229
85 255 59 114 126 180 298 269 219 218 217 247 278 307 307 305 301 308 317 320 318 328 329 332 327 327 328 328 317 306 290 251 231 213 223 244 243 235 222 238 222 213 224 213 211 216 217 217 224
228 196 148 122 255 196 147 273 201 216 232 254 290 307 308 302 301 314 324 325 334 336 343 344 345 344 344 343 336 324 284 217 207 205 216 224 223 236 248 235 229 202 202 204 201 207 212 209 208